TimeEST,TemperatureF,Dew PointF,Humidity,Sea Level PressureIn,VisibilityMPH,Wind Direction,Wind SpeedMPH,Gust SpeedMPH,PrecipitationIn,Events,Conditions,WindDirDegrees,DateUTC
12:53 AM,60.1,55.9,86,30.21,10.0,SSW,6.9,-,N/A,,Clear,200,2012-12-05 05:53:00
1:53 AM,60.1,55.9,86,30.20,10.0,SSW,6.9,-,N/A,,Mostly Cloudy,210,2012-12-05 06:53:00
2:53 AM,61.0,55.9,83,30.19,10.0,SW,5.8,-,N/A,,Mostly Cloudy,220,2012-12-05 07:53:00
3:53 AM,59.0,54.0,83,30.18,10.0,SSW,4.6,-,N/A,,Clear,210,2012-12-05 08:53:00
4:53 AM,55.9,53.1,90,30.17,10.0,WSW,4.6,-,N/A,,Clear,240,2012-12-05 09:53:00
5:53 AM,57.0,53.1,87,30.18,10.0,SW,5.8,-,N/A,,Clear,230,2012-12-05 10:53:00
6:53 AM,55.9,53.1,90,30.19,10.0,WSW,5.8,-,N/A,,Clear,240,2012-12-05 11:53:00
7:53 AM,57.9,54.0,87,30.20,10.0,SW,5.8,-,N/A,,Clear,230,2012-12-05 12:53:00
9:53 AM,68.0,54.0,61,30.21,10.0,WSW,9.2,-,N/A,,Clear,250,2012-12-05 14:53:00
10:53 AM,71.1,52.0,51,30.19,10.0,SW,9.2,-,N/A,,Clear,230,2012-12-05 15:53:00
11:53 AM,73.9,48.9,41,30.17,10.0,West,11.5,-,N/A,,Clear,260,2012-12-05 16:53:00
12:53 PM,75.9,48.9,38,30.13,10.0,West,9.2,-,N/A,,Overcast,270,2012-12-05 17:53:00
1:53 PM,75.0,51.1,43,30.10,10.0,SW,8.1,-,N/A,,Overcast,220,2012-12-05 18:53:00
2:53 PM,75.0,53.1,46,30.09,10.0,WSW,8.1,-,N/A,,Overcast,250,2012-12-05 19:53:00
3:53 PM,73.0,54.0,51,30.09,10.0,WSW,4.6,-,N/A,,Overcast,240,2012-12-05 20:53:00
4:53 PM,72.0,55.0,55,30.09,10.0,Calm,Calm,-,N/A,,Overcast,0,2012-12-05 21:53:00
5:53 PM,69.1,57.9,68,30.11,10.0,North,9.2,-,N/A,,Overcast,350,2012-12-05 22:53:00
6:53 PM,66.9,57.9,73,30.12,10.0,NNE,9.2,-,N/A,,Overcast,20,2012-12-05 23:53:00
7:36 PM,64.4,59.0,83,30.14,10.0,NNE,11.5,-,N/A,,Overcast,30,2012-12-06 00:36:00
7:49 PM,64.4,59.0,83,30.15,10.0,NNE,10.4,-,N/A,,Overcast,30,2012-12-06 00:49:00
7:53 PM,64.0,59.0,84,30.15,10.0,NE,11.5,-,N/A,,Overcast,40,2012-12-06 00:53:00
8:03 PM,64.4,57.2,77,30.15,10.0,NE,10.4,20.7,N/A,,Overcast,50,2012-12-06 01:03:00
8:53 PM,64.0,57.0,78,30.16,10.0,NE,10.4,-,N/A,,Overcast,50,2012-12-06 01:53:00
9:00 PM,62.6,57.2,82,30.17,10.0,NE,8.1,-,N/A,,Overcast,50,2012-12-06 02:00:00
9:10 PM,62.6,55.4,77,30.17,10.0,NE,6.9,-,N/A,,Overcast,40,2012-12-06 02:10:00
9:21 PM,62.6,55.4,77,30.17,10.0,NE,10.4,-,N/A,,Overcast,40,2012-12-06 02:21:00
9:53 PM,63.0,52.0,67,30.17,10.0,NE,10.4,-,N/A,,Overcast,40,2012-12-06 02:53:00
10:53 PM,62.1,50.0,65,30.17,10.0,NNE,5.8,-,N/A,,Overcast,30,2012-12-06 03:53:00
11:30 PM,60.8,51.8,72,30.17,10.0,NE,9.2,-,N/A,,Overcast,50,2012-12-06 04:30:00
11:53 PM,60.1,51.1,72,30.17,10.0,ENE,12.7,-,N/A,,Overcast,60,2012-12-06 04:53:00